Location: Kapla
(46.2483°N, 15.0094°E)
Time: 14:26:30
(UTC+00:00)

GP-B - Pass Details

Date: 03 March 2021
Orbit: 631 x 635 km, 89.8° (Epoch: 17 April)

Event Time Altitude Azimuth Distance (km) Brightness Sun altitude
Rises 17:44:20 0° 158° (SSE) 2,917 6.3 -10.3°
Reaches altitude 10° 17:46:38 10° 150° (SSE) 2,015 5.4 -10.7°
Maximum altitude 17:50:46 40° 81° (E) 937 3.5 -11.4°
Drops below altitude 10° 17:54:57 10° 12° (NNE) 2,032 5.6 -12.2°
Sets 17:57:16 0° 6° (N) 2,945 6.5 -12.6°
